Jackpot

Texas Poker Multi Jackpot System

Kini Telah hadir Jackpot SUPER ROYAL FLUSH

Kini Telah hadir Jackpot 2000 (khusus table VIP keatas).

Ikutilah global jackpot yang tersedia di system kami, dengan system jackpot terbaru dan pertama di indonesia, anda dapat membeli jackpot dengan harga 100 rupiah saja dan menangkan hadiahnya hingga puluhan juta rupiah.

Jackpot bukanlah suatu keharusan untuk dibeli, namun kami memberikan suatu fitur tambahan untuk member tercinta dari www.inikartu.com.

Terdapat tiga pilihan harga jackpot yang bisa anda beli yaitu :100,500,1000 dan 2000(khusus table VIP Keatas) rupiah.

Hadiah dari Multi jackpot system www.inikartu.com

  1. full house x 10 harga jackpot yang anda beli.
      (contoh:anda membeli 1000 maka:1000 X10 = 10.000)
  2. four of kind x 250 harga jackpot yang anda beli
      (contoh:anda membeli 1000 maka:1000 X250 = 250.000)
  3. Straight flush x 1200
      (contoh:anda membeli 1000 maka:1000 X1200 = 1.200.000)
  4. Royal flush x 10000 harga jackpot yang anda beli
      (contoh:anda membeli 1000 maka:1000 X10000 = 10.000.000)
  5. SUPER ROYAL FLUSH x 30000 harga jackpot yang anda beli
      (contoh:anda membeli 1000 maka:1000 X30000 = 30.000.000)

Kondisi kartu

  1. full house adalah kondisi kartu dimana kartu anda dan kartu tengah dengan total 7 kartu bisa mendapatkan nilai 5 kartu dengan kombinasi 1 tris(three of kind) dan 1 pair, contoh 3 kartu 10 dan 2 kartu 5
  2. Four of kind adalah kondisi kartu dimana kartu anda dan kartu tengah dengan total 7 kartu bisa mendapatkan nilai 5 kartu dengan kombinasi 4 kartu yang sama jumlah dan 1 kartu apapun juga contoh anda mendapatkan 4 buah kartu angka 3 dan 1 kartu apapun.
  3. Staright flush adalah kondisi kartu dimana kartu anda dan kartu tengah dengan total 7 kartu bisa mendapatkan nilai 5 kartu dengan kombinasi seri / staright dengan kembang yang sama contoh : urutan kartu dari angka 5, 6, 7, 8 , 9 10 dengan kembang yg sama misalnya as hati
  4. Royal flush adalah kondisi kartu dimana kartu anda dan kartu tengah dengan total 7 kartu bisa mendapatkan nilai 5 kartu dengan kombinasi seri / staright dengan kembang yang sama tetapi kartu tersebut haruslah dimulai dari 10. contoh 10, Queen, Jack, King dan aces dengan kembang yang sama
  5. Super Royal flush adalah kondisi kartu dimana Kedua kartu anda digabung dengan 3 kartu pertama meja haruslah royal flush. contoh kartu anda 10,Queen kembang sama dan 3 kartu pertama meja adalah Jack, King dan aces dengan kembang yang sama

Demikian adalah penjelasan dari Multi Jackpot www.inikartu.com terima kasih dan selamat bermain salam hoki dari kami

Texas Poker Jackpot Winner

TOP SUPER ROYAL FLUSH
No.TanggalNamaPriceWin
120/09 13:44AMORE17Super Royal flush15,000,000
220/09 09:01D45RILSuper Royal flush6,000,000
320/09 05:00NAZARIOOSuper Royal flush30,000,000
420/09 03:08KEVINNSuper Royal flush6,000,000
520/09 02:18LUKY99Super Royal flush3,000,000
TOP ROYAL FLUSH
No.TanggalNamaPriceWin
120/09 13:59GOYASMEDALRoyal flush5,000,000
220/09 13:48JUNO09Royal flush10,000,000
320/09 13:35ANDROW11Royal flush5,000,000
420/09 13:31POLLUX39Royal flush5,000,000
520/09 13:26MANGGALICKRoyal flush1,000,000
TOP STRAIGHT FLUSH
No.TanggalNamaPriceWin
120/09 14:22DAVINSIStraight Flush600,000
220/09 14:22ZICO9Straight Flush120,000
320/09 14:21DON007Straight Flush600,000
420/09 14:19E01BE7BCStraight Flush600,000
520/09 14:19MANNTAP9Straight Flush1,200,000
LATEST JACKPOT
No.TanggalNamaPriceWin
120/09 14:23LEUXFull House1,000
220/09 14:23KINTEL33Full House10,000
320/09 14:23WALLS83Four Of A Kind250,000
420/09 14:2382FAMOUSFull House2,000
520/09 14:23NESTA18Full House5,000
620/09 14:23SEIYA__12Full House5,000
720/09 14:23MRGALUHFour Of A Kind125,000
820/09 14:23TATTOO10Full House5,000
920/09 14:23IHN86Full House2,000
1020/09 14:23BAYDAR888Full House2,000
1120/09 14:23JAYTOZFull House5,000
1220/09 14:22DAVVI7388Full House1,000
1320/09 14:22GUNARISFull House2,000
1420/09 14:22JUNTER1908Full House2,000
1520/09 14:22AKU2525Full House20,000
1620/09 14:22DAVINSIStraight Flush600,000
1720/09 14:22R4D4G3L0Full House5,000
1820/09 14:22GICDR1H2F7Full House2,000
1920/09 14:22JOVITA06Full House1,000
2020/09 14:22MPOKER168Full House20,000
2120/09 14:22CLARA2018Full House2,000
2220/09 14:22KANSAS5712Full House20,000
2320/09 14:22TEBS8888Full House5,000
2420/09 14:22JAWARAKAFull House5,000
2520/09 14:22GIBR4NFull House2,000
2620/09 14:22COCOLL22Full House5,000
2720/09 14:22EKIPITOK99Full House10,000
2820/09 14:22BES005Full House10,000
2920/09 14:22DOMINICQQFull House5,000
3020/09 14:22ANGINN14Full House2,000
3120/09 14:22MURAT999Full House1,000
3220/09 14:22DIFA11Full House10,000
3320/09 14:22STRESTFull House10,000
3420/09 14:22WENTIFull House5,000
3520/09 14:22EEF83707Full House2,000
3620/09 14:22D285F8A4Full House2,000
3720/09 14:22VZVFull House10,000
3820/09 14:22YAYAN011Full House5,000
3920/09 14:22IRPASANFull House10,000
4020/09 14:22FENDI888Full House1,000
4120/09 14:22SONYA15Full House10,000
4220/09 14:22MOX22Full House2,000
4320/09 14:22OTAKPICAFull House5,000
4420/09 14:22P4KU8UM1Full House500
4520/09 14:22AUDRIS00Full House1,000
4620/09 14:22HOKYBGTFull House5,000
4720/09 14:22CEPEK898Full House1,000
4820/09 14:22FEUN99Full House5,000
4920/09 14:22JUWIASFull House1,000
5020/09 14:22PRABU5058Full House5,000

Domino Multi Jackpot System

Ikutilah global jackpot yang tersedia di system kami, dengan system jackpot terbaru dan pertama di indonesia, anda dapat membeli jackpot dengan harga 100 rupiah saja dan menangkan hadiahnya hingga puluhan juta rupiah.

Jackpot bukanlah suatu keharusan untuk dibeli, namun kami memberikan suatu fitur tambahan untuk member tercinta dari www.inikartu.com.

Terdapat tiga pilihan harga jackpot yang bisa anda beli yaitu :100,500 dan 1000 rupiah.

Hadiah dari Multi jackpot system www.inikartu.com

  1. Murni Kecil x 50 harga jackpot yang anda beli.
      (contoh:anda membeli 1000 maka:1000 X 50 = 50.000)
  2. Murni Besar x 50 harga jackpot yang anda beli
      (contoh:anda membeli 1000 maka:1000 X 50 = 50.000)
  3. BALAK x 100 harga jackpot yang anda beli
      (contoh:anda membeli 1000 maka:1000 X 100 = 100.000)
  4. ENAM DEWA x 6666 harga jackpot yang anda beli
      (contoh:anda membeli 1000 maka:1000 X 6666 = 6.666.000)

Demikian adalah penjelasan dari Multi Jackpot www.inikartu.com terima kasih dan selamat bermain salam hoki dari kami

Domino Jackpot Winner

TOP ENAM DEWA
No.TanggalNamaPriceWin
120/09 12:24YONO11111murni enam6,666,000
220/09 11:36SAYOSAKATOmurni enam6,666,000
320/09 09:33PKTIAM099murni enam6,666,000
420/09 07:07DIMZ88murni enam3,333,000
520/09 04:50ROYKURmurni enam6,666,000
TOP BALAK
No.TanggalNamaPriceWin
120/09 14:23UCOK1744balak100,000
220/09 14:21B383N80balak50,000
320/09 14:21USSPbalak50,000
420/09 14:11SITRI13balak50,000
520/09 14:11JOKOBLB_12balak10,000
LATEST JACKPOT
No.TanggalNamaPriceWin
120/09 14:23UCOK1744balak100,000
220/09 14:22AJS77murni kecil25,000
320/09 14:22RAJA4317murni besar50,000
420/09 14:22BEBI1145murni besar50,000
520/09 14:22EMAGRAHAmurni kecil5,000
620/09 14:22B82BEAT2015927murni besar5,000
720/09 14:21B383N80balak50,000
820/09 14:21KAWUAKmurni kecil5,000
920/09 14:21USSPbalak50,000
1020/09 14:20KAWUAKlucky9910,000
1120/09 14:20T4DAFDAL1902murni besar50,000
1220/09 14:20KALOEmurni kecil50,000
1320/09 14:20BP886970lucky9925,000
1420/09 14:19CHIPOEYmurni kecil5,000
1520/09 14:19QZHOKYmurni besar50,000
1620/09 14:19FAHMAMlucky992,500
1720/09 14:18MPDARKIMmurni besar25,000
1820/09 14:18MUNCE92murni besar50,000
1920/09 14:18TEMPUYAK90murni kecil50,000
2020/09 14:17TWINS21murni kecil50,000
2120/09 14:17PT4DSRI20lucky9925,000
2220/09 14:17AD3A5B0Cmurni besar5,000
2320/09 14:16MASSABEHmurni besar50,000
2420/09 14:16EG4LKKFBLUmurni kecil50,000
2520/09 14:15MUNCE92murni kecil50,000
2620/09 14:15PUGALU063murni besar50,000
2720/09 14:15MULKECIL88murni kecil50,000
2820/09 14:15ISERmurni besar50,000
2920/09 14:15MV615071murni besar50,000
3020/09 14:14JOKOBLB_12murni besar5,000
3120/09 14:14BOYOT909murni kecil50,000
3220/09 14:13COEGCON99lucky9925,000
3320/09 14:13TUMERE99lucky9925,000
3420/09 14:13SALJU5murni besar25,000
3520/09 14:12EDG62XFES6murni kecil50,000
3620/09 14:12BOSLETICKmurni kecil50,000
3720/09 14:12CEHOY99murni kecil5,000
3820/09 14:11SITRI13balak50,000
3920/09 14:11USSPmurni besar25,000
4020/09 14:11MUKAGILE00murni besar5,000
4120/09 14:11ZAD123murni kecil50,000
4220/09 14:11JOKOBLB_12balak10,000
4320/09 14:10GASSJOLAmurni kecil5,000
4420/09 14:10NBOIPHTLO2murni besar50,000
4520/09 14:10LIFFA89murni besar50,000
4620/09 14:09MZHEGY88murni kecil5,000
4720/09 14:09A99ON85murni besar5,000
4820/09 14:09UG9999murni besar25,000
4920/09 14:08MHG01balak10,000
5020/09 14:08CIWAY99murni besar50,000

Ceme Multi Jackpot System

Jackpot dilihat dari gabungan kartu pemain dengan kartu bandar. Bandar harus membeli jackpot sebanyak jumlah player yang sedang duduk. Sebagai contoh bila terdapat 3 pemain duduk bermain, dan bandar memutuskan untuk membeli jackpot Rp 1.000, maka pada periode tersebut bandar akan membeli jackpot sebanyak 3xRp1.000 = Rp3.000.

Jackpot bukanlah suatu keharusan untuk dibeli, namun kami memberikan suatu fitur tambahan untuk member tercinta dari www.inikartu.com.

Terdapat tiga pilihan harga jackpot yang bisa anda beli yaitu :100,500 dan 1000 rupiah.

Hadiah dari Multi jackpot system www.inikartu.com

  1. Murni Kecil x 50 harga jackpot yang anda beli.
      (contoh:anda membeli 1000 maka:1000 X 50 = 50.000)
  2. Murni Besar x 50 harga jackpot yang anda beli
      (contoh:anda membeli 1000 maka:1000 X 50 = 50.000)
  3. BALAK x 200 harga jackpot yang anda beli
      (contoh:anda membeli 1000 maka:1000 X 200 = 200.000)
  4. ENAM DEWA x 6666 harga jackpot yang anda beli
      (contoh:anda membeli 1000 maka:1000 X 6666 = 6.666.000)

Demikian adalah penjelasan dari Multi Jackpot www.inikartu.com terima kasih dan selamat bermain salam hoki dari kami

Ceme Jackpot Winner

TOP ENAM DEWA
No.TanggalNamaPriceWin
120/09 14:15ANJELO20murni enam6,666,000
220/09 14:11HIMURA77murni enam6,666,000
320/09 14:11LASERIOOOmurni enam666,600
420/09 14:11QIEEmurni enam6,666,000
520/09 13:59SATGASMKmurni enam3,333,000
TOP BALAK
No.TanggalNamaPriceWin
120/09 14:22MUS3TOP4balak200,000
220/09 14:22DALLY1988balak200,000
320/09 14:22LB999054balak100,000
420/09 14:22EL151balak200,000
520/09 14:21SENPUTTbalak200,000
LATEST JACKPOT
No.TanggalNamaPriceWin
120/09 14:23WEROK88murni kecil50,000
220/09 14:22YKB882681murni kecil25,000
320/09 14:22KKARTU12murni kecil50,000
420/09 14:22RBTLOZZmurni kecil25,000
520/09 14:22HELDER06murni kecil5,000
620/09 14:22CALLALLmurni besar50,000
720/09 14:22KONDISI31murni kecil50,000
820/09 14:22MUS3TOP4balak200,000
920/09 14:22DALLY1988balak200,000
1020/09 14:22LB999054balak100,000
1120/09 14:22OVVIE5murni besar25,000
1220/09 14:22SANGPEMENAmurni kecil50,000
1320/09 14:22DEWGONGmurni kecil50,000
1420/09 14:22FARID38murni kecil25,000
1520/09 14:22EL151balak200,000
1620/09 14:22WONOSEMImurni besar50,000
1720/09 14:22KOPEDmurni besar50,000
1820/09 14:22SYANG02murni kecil5,000
1920/09 14:22FOLAFOLAmurni kecil50,000
2020/09 14:22RICYImurni kecil50,000
2120/09 14:22CANTIKA170murni besar5,000
2220/09 14:22FORTUNE60murni besar25,000
2320/09 14:22DH3A69murni besar50,000
2420/09 14:21SENPUTTbalak200,000
2520/09 14:21MAN1S_balak20,000
2620/09 14:21WKASmurni besar25,000
2720/09 14:21NONA669murni kecil25,000
2820/09 14:21GERAIDOmurni besar50,000
2920/09 14:21INPU5murni besar5,000
3020/09 14:21WANTO609murni kecil50,000
3120/09 14:21AHENK12murni besar50,000
3220/09 14:21WILDANSYAHmurni besar50,000
3320/09 14:21TFRAHmurni kecil25,000
3420/09 14:21ANIE2726murni besar50,000
3520/09 14:21JAMRUD113murni kecil25,000
3620/09 14:21WAKYETmurni kecil5,000
3720/09 14:21BADAK16murni besar50,000
3820/09 14:20MANGEXmurni besar50,000
3920/09 14:20ITEM84balak200,000
4020/09 14:20YOMS21balak20,000
4120/09 14:20B46UNJA268murni kecil50,000
4220/09 14:20RIDWANMAmurni kecil50,000
4320/09 14:20FAZRI0809balak20,000
4420/09 14:20DOEL184balak200,000
4520/09 14:20BLACKD1murni besar50,000
4620/09 14:20NONA669murni kecil25,000
4720/09 14:20GATEL5murni besar50,000
4820/09 14:20DRANGGA99murni kecil50,000
4920/09 14:20ARIYA567murni kecil5,000
5020/09 14:20FORTUNE60murni besar50,000